Weather Roundup
Issued by NWS

Home | Current Version | Previous Version | Graphics & Text | Print | Product List | Glossary Off
Versions: 1 2 3 4 5 6 7 8 9 10 11 12 13 14 15 16 17 18 19 20 21 22 23 24 25 26 27 28 29 30 31 32 33 34 35 36 37 38 39 40 41 42 43 44 45 46 47 48 49 50

000
NZUS93 KARX 271410
HRRWXR

CURRENT HOURLY OBSERVATIONS ACROSS
MUCH OF THE UPPER MISSISSIPPI VALLEY
NATIONAL WEATHER SERVICE LA CROSSE WI
900 AM CDT MON APR 27 2015


...SOUTHEAST MINNESOTA...


CITY           SKY/WX    TMP DP  RH WIND       PRES   REMARKS
ROCHESTER      SUNNY     47  30  51 NE5       30.23R
ROCHESTER/MAYO FAIR      47  29  50 CALM      30.22R
WINONA         SUNNY     48  32  53 NW3       30.22R
AUSTIN         SUNNY     46  30  53 N5        30.22R
ALBERT LEA     SUNNY     48  28  46 NE7       30.22S
DODGE CENTER   SUNNY     46  30  53 CALM      30.22R
PRESTON        SUNNY     45  30  55 CALM      30.22R
OWATONNA       SUNNY     48  25  40 N3        30.23R
FARIBAULT      SUNNY     50  28  43 N5        30.24R
$$

...ELSEWHERE IN MINNESOTA...


CITY           SKY/WX    TMP DP  RH WIND       PRES   REMARKS
MINNEAPOLIS    SUNNY     53  29  39 N3        30.24R
INTNL FALLS    SUNNY     49  31  49 CALM      30.23R
DULUTH         SUNNY     50  26  39 N8        30.22R
RED WING       SUNNY     50  27  40 E3        30.22R
REDWOOD FALLS  SUNNY     50  30  46 CALM      30.24R
MANKATO        SUNNY     50  27  40 NE6       30.24R
WORTHINGTON    SUNNY     52  27  37 CALM      30.24S
FAIRMONT       SUNNY     52  27  37 NE6       30.22S
$$

...SOUTHWEST WISCONSIN...


CITY           SKY/WX    TMP DP  RH WIND       PRES   REMARKS
LA CROSSE      SUNNY     49  32  52 W5        30.21R
PRAIRIE DU CHI SUNNY     47  33  57 W3        30.21R
BOSCOBEL       SUNNY     48  35  60 SW5       30.20R
LONE ROCK        N/A     48  33  56 VRB5      30.18R
PLATTEVILLE    SUNNY     48  32  53 N5        30.18R
FORT MC COY    SUNNY     47  31  54 CALM      30.20R
CAMP DOUGLAS   SUNNY     50  34  53 NW10      30.16S
VIROQUA        FAIR      48  32  53 NW6       30.19R
WIS DELLS      SUNNY     48  30  49 NW7       30.16R
$$

...ELSEWHERE IN WISCONSIN...


CITY           SKY/WX    TMP DP  RH WIND       PRES   REMARKS
MILWAUKEE      MOSUNNY   48  33  56 N14G23    30.13R
MADISON        MOSUNNY   50  32  50 N8        30.15R
GREEN BAY      SUNNY     51  34  52 N8        30.13R
EAU CLAIRE     SUNNY     49  28  44 NE5       30.21R
BLACK RVR FLS  FAIR      49  29  45 NW3       30.20R
MEDFORD        SUNNY     47  31  53 N9        30.17S
WAUSAU         SUNNY     47  29  49 N9        30.15S
WIS RAPIDS     SUNNY     51  29  42 N12       30.17S
MARSHFIELD     SUNNY     50  30  46 NE13G18   30.17S
RICE LAKE      SUNNY     48  31  52 N3        30.23S
$$

...NORTHEAST IOWA...


CITY           SKY/WX    TMP DP  RH WIND       PRES   REMARKS
DECORAH        SUNNY     46  30  53 CALM      30.20R
MASON CITY     SUNNY     49  32  52 NE10      30.22S
CHARLES CITY   SUNNY     48  32  53 VRB3      30.21S
OELWEIN        SUNNY     48  32  53 CALM      30.21R
$$

...ELSEWHERE IN IOWA...


CITY           SKY/WX    TMP DP  RH WIND       PRES   REMARKS
DES MOINES     MOSUNNY   54  33  45 NE7       30.18R
IOWA CITY      SUNNY     48  35  60 NE7       30.18R
FORT DODGE     SUNNY     48  34  57 N3        30.22R
$$

...NORTHERN ILLINOIS...


CITY           SKY/WX    TMP DP  RH WIND       PRES   REMARKS
CHICAGO-OHARE  MOSUNNY   47  32  56 N9        30.12R
CHICAGO-MIDWAY MOSUNNY   50  34  54 N12       30.12R
MOLINE         SUNNY     49  34  56 E7        30.16R
ROCKFORD       SUNNY     49  32  52 N8        30.19R
PEORIA         SUNNY     51  33  50 E15       30.14R
$$

NOTE: "FAIR" INDICATES FEW OR NO CLOUDS BELOW 12,000 FEET WITH NO
SIGNIFICANT WEATHER AND/OR OBSTRUCTIONS TO VISIBILITY. WIND
SPEEDS ARE IN MILES-PER-HOUR.



USA.gov is the U.S. government's official web portal to all federal, state and local government web resources and services.